Location: Caltech
(34.1382°N, 118.1253°W)
Time: 08:43:24
(UTC-07:00)

NOSS 3-2 (A) - Visible Passes

Search period start: 24 May 2016 00:00
Search period end: 03 June 2016 00:00
Orbit: 905 x 1303 km, 63.4° (Epoch: 18 May)

Date Brightness Start Highest point End Pass type
(mag) Time Alt. Az. Time Alt. Az. Time Alt. Az.
24 May 4.1 01:32:26 51° NNW 01:32:26 51° NNW 01:38:04 10° NNE visible
24 May 5.9 03:22:42 10° NW 03:24:13 11° NNW 03:25:45 10° NNW visible
25 May 4.1 00:48:05 50° NNE 00:48:05 50° NNE 00:52:47 10° NNE visible
25 May 5.5 02:35:26 13° WNW 02:38:06 17° NW 02:42:12 10° N visible
26 May 4.7 00:03:41 32° ENE 00:03:41 32° ENE 00:07:15 10° NE visible
26 May 5.0 01:51:02 24° WNW 01:52:12 26° NW 01:57:36 10° N visible
26 May 5.2 23:19:14 18° ENE 23:19:14 18° ENE 23:21:17 10° NE visible
27 May 4.4 01:06:35 41° NW 01:06:35 41° NW 01:12:41 10° NNE visible
28 May 3.9 00:22:03 59° N 00:22:03 59° N 00:27:32 10° NNE visible
28 May 5.9 02:10:19 10° WNW 02:13:13 13° NW 02:16:16 10° N visible
28 May 4.0 23:37:25 48° NE 23:37:25 48° NE 23:42:08 10° NE visible
29 May 5.4 01:24:45 17° WNW 01:27:13 20° NW 01:32:00 10° N visible
29 May 4.5 22:52:41 30° ENE 22:52:41 30° ENE 22:56:25 10° NE visible
30 May 4.8 00:40:00 29° WNW 00:41:25 32° NW 00:47:14 10° NNE visible
30 May 5.0 22:07:49 18° E 22:07:49 18° E 22:10:09 10° ENE visible
30 May 4.0 23:55:08 50° WNW 23:55:49 52° NW 00:02:12 10° NNE visible
31 May 6.2 01:47:16 10° NW 01:48:25 10° NNW 01:49:35 10° NNW visible
31 May 3.3 23:10:04 81° SW 23:10:25 88° WNW 23:16:56 10° NNE visible
01 Jun 5.9 00:58:30 10° WNW 01:02:18 16° NW 01:06:16 10° N visible
01 Jun 3.5 22:24:45 52° SE 22:25:11 53° ESE 22:31:24 10° NE visible
02 Jun 5.4 00:12:01 12° W 00:16:23 25° NW 00:21:42 10° N visible
02 Jun 4.1 21:39:00 28° SE 21:40:07 29° ESE 21:45:29 10° NE visible
02 Jun 4.6 23:26:13 16° WSW 23:30:40 40° NW 23:36:48 10° NNE visible
